Simultaneous Nadir Overpasses (SNOs) Predictions

Prediction of SNOs between LANDSAT-8 and METOP-B Satellite Orbit:

Table of predicted SNOs for the next 14.0 days since TLE Epoch: 9/25/2015
Index Date (LANDSAT-8) Time (LANDSAT-8) Lat,Lon (LANDSAT-8) SZA (LANDSAT-8 ) Date (METOP-B) Time (METOP-B) Lat,Lon (METOP-B) SZA (METOP-B ) Distance(km) Time Diff (sec)
1 09/28/2015 05:27:48 -81.13, -41.77 94.68 09/28/2015 05:27:10 -81.14, -41.65 94.68 2.22 38
2 09/28/2015 06:17:13 81.16, 126.31 85.41 09/28/2015 06:17:49 81.16, 126.33 85.43 0.23 36
3 10/01/2015 01:02:03 -81.15, 24.95 93.52 10/01/2015 01:01:31 -81.15, 25.05 93.53 1.76 32
4 10/01/2015 01:51:29 81.16,-167.36 86.50 10/01/2015 01:52:11 81.16,-167.36 86.53 0.61 42
5 10/03/2015 20:36:19 -81.14, 91.23 92.44 10/03/2015 20:35:53 -81.15, 91.34 92.43 2.05 26
6 10/03/2015 21:25:44 81.17,-100.73 87.64 10/03/2015 21:26:32 81.17,-100.69 87.67 0.75 48
7 10/06/2015 16:10:33 -81.15, 157.81 91.32 10/06/2015 16:10:13 -81.16, 157.99 91.30 3.01 20
8 10/06/2015 16:59:58 81.17, -34.17 88.76 10/06/2015 17:00:52 81.18, -34.05 88.80 2.03 54
9 10/09/2015 11:44:48 -81.16,-135.67 90.22 10/09/2015 11:44:35 -81.15,-135.78 90.24 1.91 13




NCC Satellite Simultaneous Nadir Overpasses (SNOs) Prediction Service
